Time,TemperatureF,DewpointF,PressureIn,WindDirection,WindDirectionDegrees,WindSpeedMPH,WindSpeedGustMPH,Humidity,HourlyPrecipIn,Conditions,Clouds,dailyrainin,SoftwareType,DateUTC
2013-01-13 00:00:00,78.0,71.3,30.23,ENE,67,5.0,7.0,80,0.00,,,-99.99,Weather View 32 v70,2013-01-13 05:00:00,
2013-01-13 00:10:00,77.0,70.7,30.23,ENE,67,5.0,7.0,81,0.00,,,-99.99,Weather View 32 v70,2013-01-13 05:10:00,
2013-01-13 00:20:00,77.0,70.3,30.23,ENE,67,3.0,6.0,80,0.00,,,-99.99,Weather View 32 v70,2013-01-13 05:20:00,
2013-01-13 00:30:00,77.0,70.7,30.22,ENE,67,5.0,7.0,81,0.00,,,-99.99,Weather View 32 v70,2013-01-13 05:30:00,
2013-01-13 00:40:00,79.0,70.0,30.22,ENE,67,5.0,7.0,74,0.00,,,-99.99,Weather View 32 v70,2013-01-13 05:40:00,
2013-01-13 00:50:00,78.0,69.8,30.20,ENE,67,6.0,7.0,76,0.00,,,-99.99,Weather View 32 v70,2013-01-13 05:50:00,
2013-01-13 01:10:00,79.0,68.8,30.20,ENE,67,5.0,7.0,71,0.00,,,-99.99,Weather View 32 v70,2013-01-13 06:10:00,
2013-01-13 01:20:00,79.0,69.2,30.20,ENE,67,6.0,7.0,72,0.00,,,-99.99,Weather View 32 v70,2013-01-13 06:20:00,
2013-01-13 01:30:00,79.0,69.2,30.20,ENE,67,7.0,8.0,72,0.00,,,-99.99,Weather View 32 v70,2013-01-13 06:30:00,
2013-01-13 01:40:00,78.0,69.0,30.20,ENE,67,6.0,8.0,74,0.00,,,-99.99,Weather View 32 v70,2013-01-13 06:40:00,
2013-01-13 01:50:00,78.0,69.0,30.20,ENE,67,6.0,9.0,74,0.00,,,-99.99,Weather View 32 v70,2013-01-13 06:50:00,
2013-01-13 02:00:00,78.0,69.8,30.20,ENE,67,6.0,10.0,76,0.00,,,-99.99,Weather View 32 v70,2013-01-13 07:00:00,
2013-01-13 02:10:00,78.0,69.8,30.19,ENE,67,6.0,10.0,76,0.00,,,-99.99,Weather View 32 v70,2013-01-13 07:10:00,
2013-01-13 02:20:00,78.0,70.2,30.18,ENE,67,7.0,10.0,77,0.00,,,-99.99,Weather View 32 v70,2013-01-13 07:20:00,
2013-01-13 02:30:00,77.0,68.8,30.18,ENE,67,9.0,10.0,76,0.00,,,-99.99,Weather View 32 v70,2013-01-13 07:30:00,
2013-01-13 02:40:00,77.0,69.6,30.18,ENE,67,8.0,12.0,78,0.00,,,-99.99,Weather View 32 v70,2013-01-13 07:40:00,
2013-01-13 03:00:00,77.0,68.0,30.17,ENE,67,8.0,12.0,74,0.00,,,-99.99,Weather View 32 v70,2013-01-13 08:00:00,
2013-01-13 03:10:00,78.0,67.4,30.16,ENE,67,8.0,12.0,70,0.00,,,-99.99,Weather View 32 v70,2013-01-13 08:10:00,
2013-01-13 03:20:00,78.0,67.8,30.16,ENE,67,7.0,12.0,71,0.00,,,-99.99,Weather View 32 v70,2013-01-13 08:20:00,
2013-01-13 03:30:00,78.0,67.0,30.16,ENE,67,10.0,12.0,69,0.00,,,-99.99,Weather View 32 v70,2013-01-13 08:30:00,
2013-01-13 03:50:00,78.0,68.2,30.15,ENE,67,9.0,12.0,72,0.00,,,-99.99,Weather View 32 v70,2013-01-13 08:50:00,
2013-01-13 04:20:00,77.0,68.0,30.16,ENE,67,10.0,13.0,74,0.00,,,-99.99,Weather View 32 v70,2013-01-13 09:20:00,
2013-01-13 05:40:00,76.0,71.1,30.16,ENE,67,17.0,17.0,85,0.00,,,-99.99,Weather View 32 v70,2013-01-13 10:40:00,
2013-01-13 06:00:00,75.0,69.8,30.17,ENE,67,15.0,19.0,84,0.00,,,-99.99,Weather View 32 v70,2013-01-13 11:00:00,
2013-01-13 06:20:00,75.0,69.8,30.18,ENE,67,15.0,20.0,84,0.00,,,-99.99,Weather View 32 v70,2013-01-13 11:20:00,
2013-01-13 07:20:00,74.0,70.5,30.19,ENE,67,20.0,22.0,89,0.00,,,-99.99,Weather View 32 v70,2013-01-13 12:20:00,
2013-01-13 07:40:00,74.0,70.9,30.20,ENE,67,16.0,22.0,90,0.00,,,-99.99,Weather View 32 v70,2013-01-13 12:40:00,
2013-01-13 14:00:00,74.0,70.9,30.22,ENE,67,14.0,19.0,90,0.00,,,-99.99,Weather View 32 v70,2013-01-13 19:00:00,
2013-01-13 14:10:00,74.0,70.5,30.22,ENE,67,17.0,19.0,89,0.00,,,-99.99,Weather View 32 v70,2013-01-13 19:10:00,
2013-01-13 14:20:00,73.0,69.6,30.22,ENE,67,17.0,19.0,89,0.00,,,-99.99,Weather View 32 v70,2013-01-13 19:20:00,
2013-01-13 14:50:00,74.0,70.5,30.20,ENE,67,17.0,20.0,89,0.00,,,-99.99,Weather View 32 v70,2013-01-13 19:50:00,
2013-01-13 15:00:00,74.0,70.5,30.20,ENE,67,14.0,20.0,89,0.00,,,-99.99,Weather View 32 v70,2013-01-13 20:00:00,
2013-01-13 15:40:00,74.0,70.5,30.19,ENE,67,17.0,20.0,89,0.00,,,-99.99,Weather View 32 v70,2013-01-13 20:40:00,
2013-01-13 15:50:00,74.0,71.2,30.18,ENE,67,15.0,20.0,91,0.00,,,-99.99,Weather View 32 v70,2013-01-13 20:50:00,
2013-01-13 16:00:00,74.0,70.9,30.18,ENE,67,15.0,20.0,90,0.00,,,-99.99,Weather View 32 v70,2013-01-13 21:00:00,
2013-01-13 16:30:00,74.0,70.5,30.17,ENE,67,15.0,20.0,89,0.00,,,-99.99,Weather View 32 v70,2013-01-13 21:30:00,
2013-01-13 16:40:00,74.0,71.2,30.17,ENE,67,16.0,18.0,91,0.00,,,-99.99,Weather View 32 v70,2013-01-13 21:40:00,
2013-01-13 16:50:00,74.0,70.2,30.17,ENE,67,13.0,18.0,88,0.00,,,-99.99,Weather View 32 v70,2013-01-13 21:50:00,
2013-01-13 17:00:00,74.0,71.2,30.17,ENE,67,15.0,17.0,91,0.00,,,-99.99,Weather View 32 v70,2013-01-13 22:00:00,
2013-01-13 17:10:00,74.0,70.5,30.17,ENE,67,16.0,17.0,89,0.00,,,-99.99,Weather View 32 v70,2013-01-13 22:10:00,
2013-01-13 17:20:00,74.0,70.5,30.17,ENE,67,13.0,19.0,89,0.00,,,-99.99,Weather View 32 v70,2013-01-13 22:20:00,
2013-01-13 17:30:00,74.0,70.5,30.17,ENE,67,14.0,19.0,89,0.00,,,-99.99,Weather View 32 v70,2013-01-13 22:30:00,
2013-01-13 17:40:00,74.0,71.2,30.17,ENE,67,12.0,19.0,91,0.00,,,-99.99,Weather View 32 v70,2013-01-13 22:40:00,
2013-01-13 17:50:00,74.0,71.2,30.17,ENE,67,16.0,19.0,91,0.00,,,-99.99,Weather View 32 v70,2013-01-13 22:50:00,
2013-01-13 18:00:00,74.0,71.5,30.17,ENE,67,14.0,19.0,92,0.00,,,-99.99,Weather View 32 v70,2013-01-13 23:00:00,
2013-01-13 18:10:00,74.0,69.5,30.18,East,90,12.0,19.0,86,0.00,,,-99.99,Weather View 32 v70,2013-01-13 23:10:00,
2013-01-13 18:20:00,74.0,69.2,30.18,East,90,12.0,17.0,85,0.00,,,-99.99,Weather View 32 v70,2013-01-13 23:20:00,
2013-01-13 18:28:00,74.0,61.9,30.23,East,90,10.0,19.0,66,0.00,,,-99.99,Weather View 32 v70,2013-01-13 23:28:00,
2013-01-13 18:30:00,74.0,68.5,30.18,ENE,67,15.0,17.0,83,0.00,,,-99.99,Weather View 32 v70,2013-01-13 23:30:00,
2013-01-13 18:38:00,74.0,61.9,30.22,East,90,12.0,19.0,66,0.00,,,-99.99,Weather View 32 v70,2013-01-13 23:38:00,
2013-01-13 18:40:00,74.0,68.8,30.16,ENE,67,13.0,17.0,84,0.00,,,-99.99,Weather View 32 v70,2013-01-13 23:40:00,
2013-01-13 18:50:00,74.0,68.1,30.17,East,90,15.0,17.0,82,0.00,,,-99.99,Weather View 32 v70,2013-01-13 23:50:00,
2013-01-13 19:00:00,74.0,69.5,30.18,East,90,13.0,17.0,86,0.00,,,-99.99,Weather View 32 v70,2013-01-14 00:00:00,
2013-01-13 19:10:00,74.0,68.8,30.18,ENE,67,13.0,17.0,84,0.00,,,-99.99,Weather View 32 v70,2013-01-14 00:10:00,
2013-01-13 19:18:00,74.0,64.4,30.23,East,90,13.0,19.0,72,0.00,,,-99.99,Weather View 32 v70,2013-01-14 00:18:00,
2013-01-13 19:20:00,74.0,69.2,30.18,East,90,11.0,17.0,85,0.00,,,-99.99,Weather View 32 v70,2013-01-14 00:20:00,
2013-01-13 19:28:00,74.0,64.4,30.23,ENE,67,16.0,18.0,72,0.00,,,-99.99,Weather View 32 v70,2013-01-14 00:28:00,
2013-01-13 19:30:00,74.0,69.2,30.18,East,90,13.0,17.0,85,0.00,,,-99.99,Weather View 32 v70,2013-01-14 00:30:00,
2013-01-13 19:38:00,74.0,62.7,30.23,East,90,12.0,20.0,68,0.00,,,-99.99,Weather View 32 v70,2013-01-14 00:38:00,
2013-01-13 19:40:00,74.0,68.5,30.18,East,90,15.0,17.0,83,0.00,,,-99.99,Weather View 32 v70,2013-01-14 00:40:00,
2013-01-13 19:50:00,74.0,68.8,30.18,East,90,15.0,17.0,84,0.00,,,-99.99,Weather View 32 v70,2013-01-14 00:50:00,
2013-01-13 19:58:00,74.0,64.0,30.23,East,90,17.0,20.0,71,0.00,,,-99.99,Weather View 32 v70,2013-01-14 00:58:00,
2013-01-13 20:00:00,74.0,68.8,30.18,East,90,12.0,17.0,84,0.00,,,-99.99,Weather View 32 v70,2013-01-14 01:00:00,
2013-01-13 20:18:00,74.0,62.7,30.22,East,90,15.0,20.0,68,0.00,,,-99.99,Weather View 32 v70,2013-01-14 01:18:00,
2013-01-13 20:28:00,74.0,64.8,30.22,East,90,19.0,21.0,73,0.00,,,-99.99,Weather View 32 v70,2013-01-14 01:28:00,
2013-01-13 20:48:00,74.0,65.5,30.22,ENE,67,13.0,23.0,75,0.00,,,-99.99,Weather View 32 v70,2013-01-14 01:48:00,
2013-01-13 20:58:00,74.0,64.4,30.22,ENE,67,16.0,23.0,72,0.00,,,-99.99,Weather View 32 v70,2013-01-14 01:58:00,
2013-01-13 21:08:00,74.0,64.8,30.21,ENE,67,20.0,23.0,73,0.00,,,-99.99,Weather View 32 v70,2013-01-14 02:08:00,
2013-01-13 21:18:00,74.0,64.0,30.22,ENE,67,17.0,23.0,71,0.00,,,-99.99,Weather View 32 v70,2013-01-14 02:18:00,
2013-01-13 21:40:00,74.0,68.8,30.22,East,90,12.0,16.0,84,0.00,,,-99.99,Weather View 32 v70,2013-01-14 02:40:00,
2013-01-13 21:49:00,74.0,64.8,30.22,ENE,67,16.0,22.0,73,0.00,,,-99.99,Weather View 32 v70,2013-01-14 02:49:00,
2013-01-13 21:50:00,75.0,69.5,30.22,East,90,11.0,15.0,83,0.00,,,-99.99,Weather View 32 v70,2013-01-14 02:50:00,
2013-01-13 22:00:00,75.0,69.8,30.23,East,90,12.0,15.0,84,0.00,,,-99.99,Weather View 32 v70,2013-01-14 03:00:00,
2013-01-13 22:10:00,75.0,70.5,30.23,East,90,13.0,15.0,86,0.00,,,-99.99,Weather View 32 v70,2013-01-14 03:10:00,
2013-01-13 22:18:00,74.0,64.8,30.22,East,90,13.0,22.0,73,0.00,,,-99.99,Weather View 32 v70,2013-01-14 03:18:00,
2013-01-13 22:20:00,75.0,70.5,30.24,East,90,13.0,15.0,86,0.00,,,-99.99,Weather View 32 v70,2013-01-14 03:20:00,
2013-01-13 22:30:00,75.0,70.8,30.24,East,90,13.0,15.0,87,0.00,,,-99.99,Weather View 32 v70,2013-01-14 03:30:00,
2013-01-13 22:40:00,75.0,70.8,30.24,East,90,11.0,15.0,87,0.00,,,-99.99,Weather View 32 v70,2013-01-14 03:40:00,
2013-01-13 22:50:00,75.0,70.8,30.25,ESE,112,2.0,15.0,87,0.00,,,-99.99,Weather View 32 v70,2013-01-14 03:50:00,
2013-01-13 23:00:00,75.0,71.9,30.25,ESE,112,1.0,15.0,90,0.00,,,-99.99,Weather View 32 v70,2013-01-14 04:00:00,
2013-01-13 23:10:00,76.0,72.2,30.26,ENE,67,9.0,15.0,88,0.00,,,-99.99,Weather View 32 v70,2013-01-14 04:10:00,
2013-01-13 23:18:00,73.0,63.4,30.22,East,90,13.0,24.0,72,0.00,,,-99.99,Weather View 32 v70,2013-01-14 04:18:00,
2013-01-13 23:20:00,77.0,71.4,30.25,ESE,112,6.0,15.0,83,0.00,,,-99.99,Weather View 32 v70,2013-01-14 04:20:00,
2013-01-13 23:30:00,77.0,70.7,30.25,ESE,112,6.0,15.0,81,0.00,,,-99.99,Weather View 32 v70,2013-01-14 04:30:00,
2013-01-13 23:38:00,73.0,62.6,30.22,East,90,16.0,23.0,70,0.00,,,-99.99,Weather View 32 v70,2013-01-14 04:38:00,
2013-01-13 23:40:00,77.0,71.4,30.25,East,90,4.0,13.0,83,0.00,,,-99.99,Weather View 32 v70,2013-01-14 04:40:00,
2013-01-13 23:48:00,73.0,63.0,30.22,East,90,17.0,23.0,71,0.00,,,-99.99,Weather View 32 v70,2013-01-14 04:48:00,
2013-01-13 23:50:00,77.0,70.7,30.25,ESE,112,1.0,13.0,81,0.00,,,-99.99,Weather View 32 v70,2013-01-14 04:50:00,
2013-01-13 23:58:00,73.0,63.0,30.22,East,90,23.0,24.0,71,0.00,,,-99.99,Weather View 32 v70,2013-01-14 04:58:00,